Time,TemperatureF,DewpointF,PressureIn,WindDirection,WindDirectionDegrees,WindSpeedMPH,WindSpeedGustMPH,Humidity,HourlyPrecipIn,Conditions,Clouds,dailyrainin,SoftwareType,DateUTC
2013-05-13 00:01:00,26.4,19.9,30.14,NE,39,0.0,0.0,76,0.00,,---,0.04,VWS V14.00,2013-05-13 05:01:00,
2013-05-13 00:06:00,26.3,20.1,30.14,NE,39,0.0,0.0,77,0.00,,---,0.00,VWS V14.00,2013-05-13 05:06:00,
2013-05-13 00:11:00,26.2,20.0,30.14,NE,39,0.0,0.0,77,0.00,,---,0.00,VWS V14.00,2013-05-13 05:11:00,
2013-05-13 00:16:00,26.2,20.0,30.14,NE,39,0.0,0.0,77,0.00,,---,0.00,VWS V14.00,2013-05-13 05:16:00,
2013-05-13 00:21:00,26.1,19.9,30.14,NE,39,0.0,0.0,77,0.00,,---,0.00,VWS V14.00,2013-05-13 05:21:00,
2013-05-13 00:26:00,26.0,19.8,30.14,NE,39,0.0,0.0,77,0.00,,---,0.00,VWS V14.00,2013-05-13 05:26:00,
2013-05-13 00:31:00,26.0,19.8,30.14,NE,39,0.0,0.0,77,0.00,,---,0.00,VWS V14.00,2013-05-13 05:31:00,
2013-05-13 00:36:00,26.0,19.8,30.14,NE,39,0.0,0.0,77,0.00,,---,0.00,VWS V14.00,2013-05-13 05:36:00,
2013-05-13 00:41:00,25.9,19.7,30.14,NE,39,0.0,0.0,77,0.00,,---,0.00,VWS V14.00,2013-05-13 05:41:00,
2013-05-13 00:46:00,25.8,19.6,30.14,NE,39,0.0,0.0,77,0.00,,---,0.00,VWS V14.00,2013-05-13 05:46:00,
2013-05-13 00:51:00,25.7,19.5,30.14,NE,39,0.0,0.0,77,0.00,,---,0.00,VWS V14.00,2013-05-13 05:51:00,
2013-05-13 00:56:00,25.6,19.4,30.14,NE,39,0.0,0.0,77,0.00,,---,0.00,VWS V14.00,2013-05-13 05:56:00,
2013-05-13 01:01:00,25.7,19.5,30.14,NE,39,0.0,0.0,77,0.00,,---,0.00,VWS V14.00,2013-05-13 06:01:00,
2013-05-13 01:06:00,25.7,19.5,30.14,NE,39,0.0,0.0,77,0.00,,---,0.00,VWS V14.00,2013-05-13 06:06:00,
2013-05-13 01:11:00,25.6,19.4,30.14,NE,39,0.0,0.0,77,0.00,,---,0.00,VWS V14.00,2013-05-13 06:11:00,
2013-05-13 01:16:00,25.6,19.4,30.14,NE,39,0.0,0.0,77,0.00,,---,0.00,VWS V14.00,2013-05-13 06:16:00,
2013-05-13 01:21:00,25.5,19.3,30.14,NE,39,0.0,0.0,77,0.00,,---,0.00,VWS V14.00,2013-05-13 06:21:00,
2013-05-13 01:26:00,25.4,19.2,30.14,NE,39,0.0,0.0,77,0.00,,---,0.00,VWS V14.00,2013-05-13 06:26:00,
2013-05-13 01:31:00,25.3,19.4,30.14,NE,39,0.0,0.0,78,0.00,,---,0.00,VWS V14.00,2013-05-13 06:31:00,
2013-05-13 01:36:00,25.2,19.3,30.13,NE,39,0.0,0.0,78,0.00,,---,0.00,VWS V14.00,2013-05-13 06:36:00,
2013-05-13 01:41:00,25.2,19.6,30.14,NE,39,0.0,0.0,79,0.00,,---,0.00,VWS V14.00,2013-05-13 06:41:00,
2013-05-13 01:46:00,25.2,19.6,30.14,NE,39,0.0,0.0,79,0.00,,---,0.00,VWS V14.00,2013-05-13 06:46:00,
2013-05-13 01:51:00,25.1,19.5,30.13,NE,39,0.0,0.0,79,0.00,,---,0.00,VWS V14.00,2013-05-13 06:51:00,
2013-05-13 01:56:00,25.1,19.5,30.13,NE,39,0.0,0.0,79,0.00,,---,0.00,VWS V14.00,2013-05-13 06:56:00,
2013-05-13 02:01:00,25.0,19.4,30.13,NE,39,0.0,0.0,79,0.00,,---,0.00,VWS V14.00,2013-05-13 07:01:00,
2013-05-13 02:06:00,25.0,19.7,30.13,NE,39,0.0,0.0,80,0.00,,---,0.00,VWS V14.00,2013-05-13 07:06:00,
2013-05-13 02:11:00,25.0,20.0,30.13,NE,39,0.0,0.0,81,0.00,,---,0.00,VWS V14.00,2013-05-13 07:11:00,
2013-05-13 02:16:00,25.0,20.0,30.12,NE,39,0.0,0.0,81,0.00,,---,0.00,VWS V14.00,2013-05-13 07:16:00,
2013-05-13 02:21:00,25.0,20.0,30.12,NE,39,0.0,0.0,81,0.00,,---,0.00,VWS V14.00,2013-05-13 07:21:00,
2013-05-13 02:26:00,25.0,20.3,30.12,NE,39,0.0,0.0,82,0.00,,---,0.00,VWS V14.00,2013-05-13 07:26:00,
2013-05-13 02:31:00,25.0,20.3,30.12,NE,39,0.0,0.0,82,0.00,,---,0.00,VWS V14.00,2013-05-13 07:31:00,
2013-05-13 02:36:00,24.9,20.2,30.12,NE,39,0.0,0.0,82,0.00,,---,0.00,VWS V14.00,2013-05-13 07:36:00,
2013-05-13 02:41:00,24.8,20.4,30.12,NE,39,0.0,0.0,83,0.00,,---,0.00,VWS V14.00,2013-05-13 07:41:00,
2013-05-13 02:46:00,24.8,20.4,30.12,NE,39,0.0,0.0,83,0.00,,---,0.00,VWS V14.00,2013-05-13 07:46:00,
2013-05-13 02:51:00,24.7,20.0,30.12,NE,39,0.0,0.0,82,0.00,,---,0.00,VWS V14.00,2013-05-13 07:51:00,
2013-05-13 02:56:00,24.7,20.0,30.13,NE,39,0.0,0.0,82,0.00,,---,0.00,VWS V14.00,2013-05-13 07:56:00,
2013-05-13 03:01:00,24.6,20.2,30.13,NE,39,0.0,0.0,83,0.00,,---,0.00,VWS V14.00,2013-05-13 08:01:00,
2013-05-13 03:06:00,24.6,20.2,30.13,NE,39,0.0,0.0,83,0.00,,---,0.00,VWS V14.00,2013-05-13 08:06:00,
2013-05-13 03:11:00,24.5,20.1,30.12,NE,39,0.0,0.0,83,0.00,,---,0.00,VWS V14.00,2013-05-13 08:11:00,
2013-05-13 03:16:00,24.4,20.5,30.12,NE,39,0.0,0.0,85,0.00,,---,0.00,VWS V14.00,2013-05-13 08:16:00,
2013-05-13 03:21:00,24.4,20.5,30.12,NE,39,0.0,0.0,85,0.00,,---,0.00,VWS V14.00,2013-05-13 08:21:00,
2013-05-13 03:26:00,24.5,21.2,30.12,NE,39,0.0,0.0,87,0.00,,---,0.00,VWS V14.00,2013-05-13 08:26:00,
2013-05-13 03:31:00,24.5,20.9,30.12,NE,39,0.0,0.0,86,0.00,,---,0.00,VWS V14.00,2013-05-13 08:31:00,
2013-05-13 03:36:00,24.5,20.9,30.12,NE,39,0.0,0.0,86,0.00,,---,0.00,VWS V14.00,2013-05-13 08:36:00,
2013-05-13 03:41:00,24.5,20.9,30.12,NE,39,0.0,0.0,86,0.00,,---,0.00,VWS V14.00,2013-05-13 08:41:00,
2013-05-13 03:46:00,24.4,20.8,30.12,NE,39,0.0,0.0,86,0.00,,---,0.00,VWS V14.00,2013-05-13 08:46:00,
2013-05-13 03:51:00,24.3,20.7,30.12,NE,39,0.0,0.0,86,0.00,,---,0.00,VWS V14.00,2013-05-13 08:51:00,
2013-05-13 03:56:00,24.2,20.6,30.12,NE,39,0.0,0.0,86,0.00,,---,0.00,VWS V14.00,2013-05-13 08:56:00,
2013-05-13 04:01:00,24.2,20.9,30.12,NE,39,0.0,0.0,87,0.00,,---,0.00,VWS V14.00,2013-05-13 09:01:00,
2013-05-13 04:06:00,24.1,20.8,30.12,NE,39,0.0,0.0,87,0.00,,---,0.00,VWS V14.00,2013-05-13 09:06:00,
2013-05-13 04:11:00,24.0,20.7,30.12,NE,39,0.0,0.0,87,0.00,,---,0.00,VWS V14.00,2013-05-13 09:11:00,
2013-05-13 04:16:00,23.9,20.6,30.11,NE,39,0.0,0.0,87,0.00,,---,0.00,VWS V14.00,2013-05-13 09:16:00,
2013-05-13 04:21:00,23.8,20.8,30.12,NE,39,0.0,0.0,88,0.00,,---,0.00,VWS V14.00,2013-05-13 09:21:00,
2013-05-13 04:26:00,23.8,20.8,30.12,NE,39,0.0,0.0,88,0.00,,---,0.00,VWS V14.00,2013-05-13 09:26:00,
2013-05-13 04:31:00,23.8,20.8,30.12,NE,39,0.0,0.0,88,0.00,,---,0.00,VWS V14.00,2013-05-13 09:31:00,
2013-05-13 04:36:00,23.8,20.8,30.12,NE,39,0.0,0.0,88,0.00,,---,0.00,VWS V14.00,2013-05-13 09:36:00,
2013-05-13 04:41:00,23.8,20.8,30.13,NE,39,0.0,0.0,88,0.00,,---,0.00,VWS V14.00,2013-05-13 09:41:00,
2013-05-13 04:46:00,23.7,20.7,30.13,NE,39,0.0,0.0,88,0.00,,---,0.00,VWS V14.00,2013-05-13 09:46:00,
2013-05-13 04:51:00,23.6,20.6,30.13,NE,39,0.0,0.0,88,0.00,,---,0.00,VWS V14.00,2013-05-13 09:51:00,
2013-05-13 04:56:00,23.5,20.2,30.13,NE,39,0.0,0.0,87,0.00,,---,0.00,VWS V14.00,2013-05-13 09:56:00,
2013-05-13 05:01:00,23.4,20.4,30.13,NE,39,0.0,0.0,88,0.00,,---,0.00,VWS V14.00,2013-05-13 10:01:00,
2013-05-13 05:06:00,23.3,20.3,30.13,NE,39,0.0,0.0,88,0.00,,---,0.00,VWS V14.00,2013-05-13 10:06:00,
2013-05-13 05:11:00,23.2,20.5,30.13,NE,39,0.0,0.0,89,0.00,,---,0.00,VWS V14.00,2013-05-13 10:11:00,
2013-05-13 05:16:00,23.2,20.5,30.13,NE,39,0.0,0.0,89,0.00,,---,0.00,VWS V14.00,2013-05-13 10:16:00,
2013-05-13 05:21:00,23.2,20.7,30.13,NE,39,0.0,0.0,90,0.00,,---,0.00,VWS V14.00,2013-05-13 10:21:00,
2013-05-13 05:26:00,23.4,20.9,30.13,NE,39,0.0,0.0,90,0.00,,---,0.00,VWS V14.00,2013-05-13 10:26:00,
2013-05-13 05:31:00,23.5,21.0,30.13,NE,39,0.0,0.0,90,0.00,,---,0.00,VWS V14.00,2013-05-13 10:31:00,
2013-05-13 05:36:00,23.6,21.1,30.13,NE,39,0.0,0.0,90,0.00,,---,0.00,VWS V14.00,2013-05-13 10:36:00,
2013-05-13 05:41:00,23.6,21.1,30.13,NE,39,0.0,0.0,90,0.00,,---,0.00,VWS V14.00,2013-05-13 10:41:00,
2013-05-13 05:46:00,23.6,21.1,30.13,NE,39,0.0,0.0,90,0.00,,---,0.00,VWS V14.00,2013-05-13 10:46:00,
2013-05-13 05:51:00,23.6,21.1,30.14,NE,39,0.0,0.0,90,0.00,,---,0.00,VWS V14.00,2013-05-13 10:51:00,
2013-05-13 05:56:00,23.6,21.1,30.14,NE,39,0.0,0.0,90,0.00,,---,0.00,VWS V14.00,2013-05-13 10:56:00,
2013-05-13 06:01:00,23.7,21.2,30.14,NE,39,0.0,0.0,90,0.00,,---,0.00,VWS V14.00,2013-05-13 11:01:00,
2013-05-13 06:06:00,23.8,21.3,30.14,NE,39,0.0,0.0,90,0.00,,---,0.00,VWS V14.00,2013-05-13 11:06:00,
2013-05-13 06:11:00,23.9,21.7,30.14,NE,39,0.0,0.0,91,0.00,,---,0.00,VWS V14.00,2013-05-13 11:11:00,
2013-05-13 06:16:00,24.2,22.0,30.14,NE,39,0.0,0.0,91,0.00,,---,0.00,VWS V14.00,2013-05-13 11:16:00,
2013-05-13 06:21:00,24.4,22.2,30.14,NE,39,0.0,0.0,91,0.00,,---,0.00,VWS V14.00,2013-05-13 11:21:00,
2013-05-13 06:26:00,24.5,22.2,30.14,NE,39,0.0,0.0,91,0.00,,---,0.00,VWS V14.00,2013-05-13 11:26:00,
2013-05-13 06:31:00,24.7,22.5,30.14,NE,39,0.0,0.0,91,0.00,,---,0.00,VWS V14.00,2013-05-13 11:31:00,
2013-05-13 06:36:00,24.9,22.6,30.15,NE,39,0.0,0.0,91,0.00,,---,0.00,VWS V14.00,2013-05-13 11:36:00,
2013-05-13 06:41:00,25.3,23.0,30.15,NE,39,0.0,0.0,91,0.00,,---,0.00,VWS V14.00,2013-05-13 11:41:00,
2013-05-13 06:46:00,26.0,23.2,30.15,NE,39,1.0,1.0,89,0.00,,---,0.00,VWS V14.00,2013-05-13 11:46:00,
2013-05-13 06:51:00,26.8,23.2,30.15,NE,39,0.0,0.0,86,0.00,,---,0.00,VWS V14.00,2013-05-13 11:51:00,
2013-05-13 06:56:00,27.7,23.2,30.15,NE,39,0.0,1.0,83,0.00,,---,0.00,VWS V14.00,2013-05-13 11:56:00,
2013-05-13 07:01:00,28.5,23.1,30.15,NE,39,0.0,1.0,80,0.00,,---,0.00,VWS V14.00,2013-05-13 12:01:00,
2013-05-13 07:06:00,29.2,23.5,30.15,ENE,76,0.0,1.0,79,0.00,,---,0.00,VWS V14.00,2013-05-13 12:06:00,
2013-05-13 07:11:00,29.9,23.6,30.15,SSE,157,0.0,3.0,77,0.00,,---,0.00,VWS V14.00,2013-05-13 12:11:00,
2013-05-13 07:16:00,30.5,23.9,30.15,SSE,155,0.0,3.0,76,0.00,,---,0.00,VWS V14.00,2013-05-13 12:16:00,
2013-05-13 07:21:00,31.0,24.3,30.15,SSE,155,0.0,2.0,76,0.00,,---,0.00,VWS V14.00,2013-05-13 12:21:00,
2013-05-13 07:26:00,31.5,24.5,30.15,SSE,153,1.0,3.0,75,0.00,,---,0.00,VWS V14.00,2013-05-13 12:26:00,
2013-05-13 07:31:00,32.0,24.0,30.15,SSE,160,2.0,5.0,72,0.00,,---,0.00,VWS V14.00,2013-05-13 12:31:00,
2013-05-13 07:36:00,32.6,23.6,30.15,SSE,158,1.0,5.0,69,0.00,,---,0.00,VWS V14.00,2013-05-13 12:36:00,
2013-05-13 07:41:00,33.3,23.5,30.15,South,173,3.0,6.0,67,0.00,,---,0.00,VWS V14.00,2013-05-13 12:41:00,
2013-05-13 07:46:00,33.9,23.4,30.15,South,182,3.0,6.0,65,0.00,,---,0.00,VWS V14.00,2013-05-13 12:46:00,
2013-05-13 07:51:00,34.3,23.4,30.15,SSW,192,4.0,4.0,64,0.00,,---,0.00,VWS V14.00,2013-05-13 12:51:00,
2013-05-13 07:56:00,34.9,23.2,30.15,South,169,2.0,5.0,62,0.00,,---,0.00,VWS V14.00,2013-05-13 12:56:00,
2013-05-13 08:01:00,35.5,24.2,30.15,SE,136,5.0,5.0,63,0.00,,---,0.00,VWS V14.00,2013-05-13 13:01:00,
2013-05-13 08:06:00,36.1,24.0,30.16,SE,146,4.0,6.0,61,0.00,,---,0.00,VWS V14.00,2013-05-13 13:06:00,
2013-05-13 08:11:00,36.6,23.6,30.16,SSE,158,0.0,6.0,59,0.00,,---,0.00,VWS V14.00,2013-05-13 13:11:00,
2013-05-13 08:16:00,37.0,23.6,30.16,SSE,149,3.0,6.0,58,0.00,,---,0.00,VWS V14.00,2013-05-13 13:16:00,
2013-05-13 08:21:00,37.5,23.7,30.16,SSE,147,4.0,5.0,57,0.00,,---,0.00,VWS V14.00,2013-05-13 13:21:00,
2013-05-13 08:26:00,38.0,23.7,30.16,South,169,4.0,5.0,56,0.00,,---,0.00,VWS V14.00,2013-05-13 13:26:00,
2013-05-13 08:31:00,38.5,23.8,30.16,SSW,194,0.0,7.0,55,0.00,,---,0.00,VWS V14.00,2013-05-13 13:31:00,
2013-05-13 08:36:00,39.1,23.4,30.16,SSW,208,1.0,6.0,53,0.00,,---,0.00,VWS V14.00,2013-05-13 13:36:00,
2013-05-13 08:41:00,39.4,23.2,30.16,SE,132,4.0,8.0,52,0.00,,---,0.00,VWS V14.00,2013-05-13 13:41:00,
2013-05-13 08:46:00,39.6,23.4,30.15,SE,142,6.0,8.0,52,0.00,,---,0.00,VWS V14.00,2013-05-13 13:46:00,
2013-05-13 08:51:00,39.7,23.1,30.15,SE,134,4.0,9.0,51,0.00,,---,0.00,VWS V14.00,2013-05-13 13:51:00,
2013-05-13 08:56:00,39.7,23.1,30.16,SE,139,6.0,9.0,51,0.00,,---,0.00,VWS V14.00,2013-05-13 13:56:00,
2013-05-13 09:01:00,40.1,23.4,30.15,SSW,200,2.0,9.0,51,0.00,,---,0.00,VWS V14.00,2013-05-13 14:01:00,
2013-05-13 09:06:00,40.4,23.2,30.15,South,179,4.0,7.0,50,0.00,,---,0.00,VWS V14.00,2013-05-13 14:06:00,
2013-05-13 09:11:00,40.7,22.5,30.15,SSE,168,2.0,9.0,48,0.00,,---,0.00,VWS V14.00,2013-05-13 14:11:00,
2013-05-13 09:16:00,40.9,22.2,30.15,SE,142,1.0,9.0,47,0.00,,---,0.00,VWS V14.00,2013-05-13 14:16:00,
2013-05-13 09:21:00,41.2,22.0,30.15,South,188,5.0,9.0,46,0.00,,---,0.00,VWS V14.00,2013-05-13 14:21:00,
2013-05-13 09:26:00,41.5,21.8,30.15,SSE,156,3.0,10.0,45,0.00,,---,0.00,VWS V14.00,2013-05-13 14:26:00,
2013-05-13 09:31:00,41.7,22.5,30.15,SSE,150,5.0,10.0,46,0.00,,---,0.00,VWS V14.00,2013-05-13 14:31:00,
2013-05-13 09:36:00,42.0,22.2,30.15,SSE,148,3.0,7.0,45,0.00,,---,0.00,VWS V14.00,2013-05-13 14:36:00,
2013-05-13 09:41:00,42.2,21.9,30.15,SE,130,5.0,7.0,44,0.00,,---,0.00,VWS V14.00,2013-05-13 14:41:00,
2013-05-13 09:46:00,42.3,21.4,30.15,SSE,162,2.0,10.0,43,0.00,,---,0.00,VWS V14.00,2013-05-13 14:46:00,
2013-05-13 09:51:00,42.4,21.0,30.14,SE,134,3.0,9.0,42,0.00,,---,0.00,VWS V14.00,2013-05-13 14:51:00,
2013-05-13 09:56:00,42.6,21.1,30.14,SSW,209,4.0,9.0,42,0.00,,---,0.00,VWS V14.00,2013-05-13 14:56:00,
2013-05-13 10:01:00,43.1,21.6,30.14,SE,125,4.0,10.0,42,0.00,,---,0.00,VWS V14.00,2013-05-13 15:01:00,
2013-05-13 10:06:00,43.1,21.0,30.13,SSE,153,3.0,12.0,41,0.00,,---,0.00,VWS V14.00,2013-05-13 15:06:00,
2013-05-13 10:11:00,43.4,21.9,30.13,SE,131,2.0,12.0,42,0.00,,---,0.00,VWS V14.00,2013-05-13 15:11:00,
2013-05-13 10:16:00,43.9,21.7,30.13,SW,229,2.0,12.0,41,0.00,,---,0.00,VWS V14.00,2013-05-13 15:16:00,
2013-05-13 10:21:00,44.1,21.3,30.13,South,169,5.0,7.0,40,0.00,,---,0.00,VWS V14.00,2013-05-13 15:21:00,
2013-05-13 10:26:00,44.6,21.8,30.13,SSW,199,3.0,7.0,40,0.00,,---,0.00,VWS V14.00,2013-05-13 15:26:00,
2013-05-13 10:31:00,44.9,21.5,30.13,SSW,212,6.0,9.0,39,0.00,,---,0.00,VWS V14.00,2013-05-13 15:31:00,
2013-05-13 10:36:00,45.0,21.5,30.13,South,186,2.0,10.0,39,0.00,,---,0.00,VWS V14.00,2013-05-13 15:36:00,
2013-05-13 10:41:00,45.0,20.9,30.13,SSE,156,1.0,11.0,38,0.00,,---,0.00,VWS V14.00,2013-05-13 15:41:00,
2013-05-13 10:46:00,45.2,22.3,30.13,SSW,197,4.0,11.0,40,0.00,,---,0.00,VWS V14.00,2013-05-13 15:46:00,
2013-05-13 10:51:00,45.5,22.0,30.13,SSW,213,6.0,6.0,39,0.00,,---,0.00,VWS V14.00,2013-05-13 15:51:00,
2013-05-13 10:56:00,45.9,21.7,30.13,South,178,4.0,10.0,38,0.00,,---,0.00,VWS V14.00,2013-05-13 15:56:00,
2013-05-13 11:01:00,46.0,21.2,30.12,South,191,5.0,10.0,37,0.00,,---,0.00,VWS V14.00,2013-05-13 16:01:00,
2013-05-13 11:06:00,46.2,22.0,30.12,SSW,200,7.0,10.0,38,0.00,,---,0.00,VWS V14.00,2013-05-13 16:06:00,
2013-05-13 11:11:00,46.5,22.3,30.12,South,184,7.0,10.0,38,0.00,,---,0.00,VWS V14.00,2013-05-13 16:11:00,
2013-05-13 11:16:00,46.8,21.9,30.11,ESE,109,3.0,10.0,37,0.00,,---,0.00,VWS V14.00,2013-05-13 16:16:00,
2013-05-13 11:21:00,47.1,22.2,30.11,South,176,0.0,5.0,37,0.00,,---,0.00,VWS V14.00,2013-05-13 16:21:00,
2013-05-13 11:26:00,47.6,22.6,30.11,SE,140,4.0,12.0,37,0.00,,---,0.00,VWS V14.00,2013-05-13 16:26:00,
2013-05-13 11:31:00,47.9,22.9,30.10,SW,223,3.0,12.0,37,0.00,,---,0.00,VWS V14.00,2013-05-13 16:31:00,
2013-05-13 11:37:00,48.3,21.9,30.10,SE,138,5.0,7.0,35,0.00,,---,0.00,VWS V14.00,2013-05-13 16:37:00,
2013-05-13 11:42:00,48.4,22.0,30.10,SSE,167,3.0,10.0,35,0.00,,---,0.00,VWS V14.00,2013-05-13 16:42:00,
2013-05-13 11:47:00,48.5,22.1,30.10,ESE,113,4.0,12.0,35,0.00,,---,0.00,VWS V14.00,2013-05-13 16:47:00,
2013-05-13 11:52:00,48.7,23.0,30.10,SW,221,0.0,9.0,36,0.00,,---,0.00,VWS V14.00,2013-05-13 16:52:00,
2013-05-13 11:57:00,49.2,23.4,30.09,SE,139,7.0,10.0,36,0.00,,---,0.00,VWS V14.00,2013-05-13 16:57:00,
2013-05-13 12:02:00,49.4,22.2,30.09,SSW,205,6.0,10.0,34,0.00,,---,0.00,VWS V14.00,2013-05-13 17:02:00,
2013-05-13 12:07:00,49.4,21.5,30.09,ESE,111,5.0,11.0,33,0.00,,---,0.00,VWS V14.00,2013-05-13 17:07:00,
2013-05-13 12:12:00,49.3,22.1,30.09,SSW,211,5.0,11.0,34,0.00,,---,0.00,VWS V14.00,2013-05-13 17:12:00,
2013-05-13 12:17:00,49.7,22.5,30.09,SE,138,5.0,11.0,34,0.00,,---,0.00,VWS V14.00,2013-05-13 17:17:00,
2013-05-13 12:22:00,49.9,22.7,30.08,South,182,1.0,11.0,34,0.00,,---,0.00,VWS V14.00,2013-05-13 17:22:00,
2013-05-13 12:27:00,50.4,23.1,30.08,SE,129,5.0,11.0,34,0.00,,---,0.00,VWS V14.00,2013-05-13 17:27:00,
2013-05-13 12:32:00,50.7,24.1,30.07,SSE,153,2.0,11.0,35,0.00,,---,0.00,VWS V14.00,2013-05-13 17:32:00,
2013-05-13 12:37:00,51.2,24.5,30.07,SE,127,1.0,7.0,35,0.00,,---,0.00,VWS V14.00,2013-05-13 17:37:00,
2013-05-13 12:42:00,51.4,22.5,30.07,SSW,192,3.0,10.0,32,0.00,,---,0.00,VWS V14.00,2013-05-13 17:42:00,
2013-05-13 12:47:00,51.3,23.2,30.07,South,184,4.0,10.0,33,0.00,,---,0.00,VWS V14.00,2013-05-13 17:47:00,
2013-05-13 12:52:00,51.3,22.5,30.06,SSW,195,7.0,7.0,32,0.00,,---,0.00,VWS V14.00,2013-05-13 17:52:00,
2013-05-13 12:57:00,51.3,24.6,30.06,ESE,119,0.0,7.0,35,0.00,,---,0.00,VWS V14.00,2013-05-13 17:57:00,
2013-05-13 13:02:00,51.7,22.1,30.06,SSE,162,1.0,10.0,31,0.00,,---,0.00,VWS V14.00,2013-05-13 18:02:00,
2013-05-13 13:07:00,51.9,23.0,30.06,South,174,7.0,10.0,32,0.00,,---,0.00,VWS V14.00,2013-05-13 18:07:00,
2013-05-13 13:12:00,52.2,23.2,30.05,SSE,163,6.0,10.0,32,0.00,,---,0.00,VWS V14.00,2013-05-13 18:12:00,
2013-05-13 13:17:00,52.4,23.4,30.05,South,184,1.0,11.0,32,0.00,,---,0.00,VWS V14.00,2013-05-13 18:17:00,
2013-05-13 13:22:00,52.5,22.0,30.05,South,186,1.0,12.0,30,0.00,,---,0.00,VWS V14.00,2013-05-13 18:22:00,
2013-05-13 13:27:00,52.6,22.9,30.04,SE,135,1.0,12.0,31,0.00,,---,0.00,VWS V14.00,2013-05-13 18:27:00,
2013-05-13 13:32:00,52.8,22.2,30.04,SSE,161,3.0,12.0,30,0.00,,---,0.00,VWS V14.00,2013-05-13 18:32:00,
2013-05-13 13:37:00,52.9,22.3,30.04,SE,140,5.0,10.0,30,0.00,,---,0.00,VWS V14.00,2013-05-13 18:37:00,
2013-05-13 13:42:00,53.1,20.9,30.03,SE,146,3.0,10.0,28,0.00,,---,0.00,VWS V14.00,2013-05-13 18:42:00,
2013-05-13 13:47:00,53.4,22.8,30.03,ESE,103,1.0,10.0,30,0.00,,---,0.00,VWS V14.00,2013-05-13 18:47:00,
2013-05-13 13:52:00,53.8,23.9,30.03,SSE,153,0.0,6.0,31,0.00,,---,0.00,VWS V14.00,2013-05-13 18:52:00,
2013-05-13 13:57:00,53.8,21.5,30.02,SSE,147,6.0,13.0,28,0.00,,---,0.00,VWS V14.00,2013-05-13 18:57:00,
2013-05-13 14:02:00,53.6,21.3,30.02,SSW,192,2.0,13.0,28,0.00,,---,0.00,VWS V14.00,2013-05-13 19:02:00,
2013-05-13 14:07:00,53.7,21.4,30.02,SSE,150,4.0,9.0,28,0.00,,---,0.00,VWS V14.00,2013-05-13 19:07:00,
2013-05-13 14:12:00,53.9,21.6,30.02,ESE,113,0.0,11.0,28,0.00,,---,0.00,VWS V14.00,2013-05-13 19:12:00,
2013-05-13 14:17:00,54.0,20.8,30.02,SSE,149,7.0,11.0,27,0.00,,---,0.00,VWS V14.00,2013-05-13 19:17:00,
2013-05-13 14:22:00,53.7,22.2,30.02,ESE,122,6.0,7.0,29,0.00,,---,0.00,VWS V14.00,2013-05-13 19:22:00,
2013-05-13 14:27:00,54.0,22.5,30.01,East,92,0.0,9.0,29,0.00,,---,0.00,VWS V14.00,2013-05-13 19:27:00,
2013-05-13 14:32:00,54.4,22.0,30.01,SE,140,1.0,9.0,28,0.00,,---,0.00,VWS V14.00,2013-05-13 19:32:00,
2013-05-13 14:38:00,54.6,22.2,30.00,South,182,3.0,6.0,28,0.00,,---,0.00,VWS V14.00,2013-05-13 19:38:00,
2013-05-13 14:42:00,54.6,22.2,30.00,SSE,155,3.0,6.0,28,0.00,,---,0.00,VWS V14.00,2013-05-13 19:42:00,
2013-05-13 14:47:00,54.8,22.3,30.00,South,177,3.0,9.0,28,0.00,,---,0.00,VWS V14.00,2013-05-13 19:47:00,
2013-05-13 14:52:00,54.9,22.4,30.00,SSE,156,0.0,11.0,28,0.00,,---,0.00,VWS V14.00,2013-05-13 19:52:00,
2013-05-13 14:57:00,55.3,23.6,30.00,SSE,159,4.0,11.0,29,0.00,,---,0.00,VWS V14.00,2013-05-13 19:57:00,
2013-05-13 15:03:00,55.5,23.0,30.00,SSW,192,1.0,11.0,28,0.00,,---,0.00,VWS V14.00,2013-05-13 20:03:00,
2013-05-13 15:08:00,55.6,23.9,29.99,SE,146,1.0,7.0,29,0.00,,---,0.00,VWS V14.00,2013-05-13 20:08:00,
2013-05-13 15:12:00,55.9,24.1,29.99,ESE,115,3.0,7.0,29,0.00,,---,0.00,VWS V14.00,2013-05-13 20:12:00,
2013-05-13 15:17:00,56.2,23.5,29.99,South,174,1.0,7.0,28,0.00,,---,0.00,VWS V14.00,2013-05-13 20:17:00,
2013-05-13 15:22:00,56.2,22.7,29.99,SSE,163,2.0,11.0,27,0.00,,---,0.00,VWS V14.00,2013-05-13 20:22:00,
2013-05-13 15:27:00,56.2,23.5,29.99,SSW,212,5.0,11.0,28,0.00,,---,0.00,VWS V14.00,2013-05-13 20:27:00,
2013-05-13 15:32:00,56.2,23.5,29.99,SE,144,5.0,11.0,28,0.00,,---,0.00,VWS V14.00,2013-05-13 20:32:00,
2013-05-13 15:37:00,56.2,23.5,29.98,East,98,2.0,8.0,28,0.00,,---,0.00,VWS V14.00,2013-05-13 20:37:00,
2013-05-13 15:42:00,56.2,23.5,29.98,South,169,5.0,9.0,28,0.00,,---,0.00,VWS V14.00,2013-05-13 20:42:00,
2013-05-13 15:47:00,56.1,24.3,29.98,SSW,205,4.0,9.0,29,0.00,,---,0.00,VWS V14.00,2013-05-13 20:47:00,
2013-05-13 15:52:00,56.1,25.1,29.98,SE,128,1.0,7.0,30,0.00,,---,0.00,VWS V14.00,2013-05-13 20:52:00,
2013-05-13 15:57:00,56.1,25.1,29.97,South,177,0.0,7.0,30,0.00,,---,0.00,VWS V14.00,2013-05-13 20:57:00,
2013-05-13 16:02:00,56.2,26.0,29.97,SSW,200,3.0,7.0,31,0.00,,---,0.00,VWS V14.00,2013-05-13 21:02:00,
2013-05-13 16:07:00,56.1,25.9,29.97,South,189,3.0,7.0,31,0.00,,---,0.00,VWS V14.00,2013-05-13 21:07:00,
2013-05-13 16:12:00,56.0,25.0,29.96,SE,132,3.0,7.0,30,0.00,,---,0.00,VWS V14.00,2013-05-13 21:12:00,
2013-05-13 16:17:00,55.9,25.7,29.96,SE,129,3.0,7.0,31,0.00,,---,0.00,VWS V14.00,2013-05-13 21:17:00,
2013-05-13 16:22:00,55.8,26.4,29.96,SSE,156,0.0,4.0,32,0.00,,---,0.00,VWS V14.00,2013-05-13 21:22:00,
2013-05-13 16:27:00,55.8,26.4,29.95,South,169,2.0,5.0,32,0.00,,---,0.00,VWS V14.00,2013-05-13 21:27:00,
2013-05-13 16:32:00,55.8,26.4,29.95,South,175,2.0,5.0,32,0.00,,---,0.00,VWS V14.00,2013-05-13 21:32:00,
2013-05-13 16:37:00,55.8,27.1,29.95,South,176,0.0,7.0,33,0.00,,---,0.00,VWS V14.00,2013-05-13 21:37:00,
2013-05-13 16:42:00,55.9,27.2,29.94,South,169,1.0,7.0,33,0.00,,---,0.00,VWS V14.00,2013-05-13 21:42:00,
2013-05-13 16:47:00,55.9,27.2,29.94,SE,144,5.0,7.0,33,0.00,,---,0.00,VWS V14.00,2013-05-13 21:47:00,
2013-05-13 16:52:00,55.9,28.0,29.94,ESE,103,0.0,7.0,34,0.00,,---,0.00,VWS V14.00,2013-05-13 21:52:00,
2013-05-13 16:57:00,55.9,27.2,29.93,SE,126,1.0,7.0,33,0.00,,---,0.00,VWS V14.00,2013-05-13 21:57:00,
2013-05-13 17:02:00,55.9,28.0,29.93,SSE,155,4.0,7.0,34,0.00,,---,0.00,VWS V14.00,2013-05-13 22:02:00,
2013-05-13 17:07:00,55.9,28.0,29.93,SSE,158,2.0,11.0,34,0.00,,---,0.00,VWS V14.00,2013-05-13 22:07:00,
2013-05-13 17:12:00,55.8,28.6,29.91,SW,226,4.0,11.0,35,0.00,,---,0.00,VWS V14.00,2013-05-13 22:12:00,
2013-05-13 17:17:00,55.8,30.6,29.90,South,169,0.0,11.0,38,0.00,,---,0.00,VWS V14.00,2013-05-13 22:17:00,
2013-05-13 17:22:00,55.8,29.3,29.90,ESE,106,1.0,6.0,36,0.00,,---,0.00,VWS V14.00,2013-05-13 22:22:00,
2013-05-13 17:27:00,55.8,30.6,29.91,SSE,167,5.0,7.0,38,0.00,,---,0.00,VWS V14.00,2013-05-13 22:27:00,
2013-05-13 17:32:00,55.7,30.5,29.91,SSE,166,1.0,11.0,38,0.00,,---,0.00,VWS V14.00,2013-05-13 22:32:00,
2013-05-13 17:37:00,55.5,30.3,29.92,SE,145,6.0,7.0,38,0.00,,---,0.00,VWS V14.00,2013-05-13 22:37:00,
2013-05-13 17:42:00,55.4,30.2,29.92,South,189,9.0,11.0,38,0.00,,---,0.00,VWS V14.00,2013-05-13 22:42:00,
2013-05-13 17:47:00,55.3,29.5,29.92,SSW,202,0.0,11.0,37,0.00,,---,0.00,VWS V14.00,2013-05-13 22:47:00,
2013-05-13 17:52:00,55.1,29.3,29.92,SSE,157,4.0,13.0,37,0.00,,---,0.00,VWS V14.00,2013-05-13 22:52:00,
2013-05-13 17:57:00,54.9,29.8,29.92,SW,223,4.0,13.0,38,0.00,,---,0.00,VWS V14.00,2013-05-13 22:57:00,
2013-05-13 18:03:00,54.7,30.2,29.92,SE,128,11.0,13.0,39,0.00,,---,0.00,VWS V14.00,2013-05-13 23:03:00,
2013-05-13 18:08:00,54.6,30.2,29.92,SSE,166,9.0,13.0,39,0.00,,---,0.00,VWS V14.00,2013-05-13 23:08:00,
2013-05-13 18:13:00,54.4,31.2,29.92,SSE,147,10.0,13.0,41,0.00,,---,0.00,VWS V14.00,2013-05-13 23:13:00,
2013-05-13 18:18:00,54.0,31.5,29.92,SSW,208,1.0,13.0,42,0.00,,---,0.00,VWS V14.00,2013-05-13 23:18:00,
2013-05-13 18:23:00,53.7,31.8,29.92,SE,144,2.0,7.0,43,0.00,,---,0.00,VWS V14.00,2013-05-13 23:23:00,
2013-05-13 18:28:00,53.5,31.6,29.92,South,175,0.0,7.0,43,0.00,,---,0.00,VWS V14.00,2013-05-13 23:28:00,
2013-05-13 18:33:00,53.4,32.0,29.92,South,188,1.0,7.0,44,0.00,,---,0.00,VWS V14.00,2013-05-13 23:33:00,
2013-05-13 18:38:00,53.3,31.4,29.92,SSE,166,2.0,9.0,43,0.00,,---,0.00,VWS V14.00,2013-05-13 23:38:00,
2013-05-13 18:43:00,53.3,31.4,29.92,SSE,153,1.0,9.0,43,0.00,,---,0.00,VWS V14.00,2013-05-13 23:43:00,
2013-05-13 18:48:00,53.3,30.8,29.92,South,170,6.0,10.0,42,0.00,,---,0.00,VWS V14.00,2013-05-13 23:48:00,
2013-05-13 18:53:00,53.3,30.8,29.91,SSW,192,2.0,6.0,42,0.00,,---,0.00,VWS V14.00,2013-05-13 23:53:00,
2013-05-13 18:58:00,53.4,30.9,29.91,SE,140,2.0,6.0,42,0.00,,---,0.00,VWS V14.00,2013-05-13 23:58:00,
2013-05-13 19:03:00,53.3,31.4,29.90,South,169,0.0,7.0,43,0.00,,---,0.00,VWS V14.00,2013-05-14 00:03:00,
2013-05-13 19:08:00,53.3,31.4,29.90,SSE,165,2.0,5.0,43,0.00,,---,0.00,VWS V14.00,2013-05-14 00:08:00,
2013-05-13 19:13:00,53.1,31.8,29.90,WSW,241,0.0,9.0,44,0.00,,---,0.00,VWS V14.00,2013-05-14 00:13:00,
2013-05-13 19:18:00,53.0,31.7,29.91,SSE,168,0.0,9.0,44,0.00,,---,0.00,VWS V14.00,2013-05-14 00:18:00,
2013-05-13 19:23:00,52.8,31.5,29.90,SE,145,0.0,5.0,44,0.00,,---,0.00,VWS V14.00,2013-05-14 00:23:00,
2013-05-13 19:28:00,52.7,31.4,29.90,SSE,157,0.0,5.0,44,0.00,,---,0.00,VWS V14.00,2013-05-14 00:28:00,
2013-05-13 19:33:00,52.7,32.0,29.90,SE,125,1.0,5.0,45,0.00,,---,0.00,VWS V14.00,2013-05-14 00:33:00,
2013-05-13 19:38:00,52.6,31.9,29.89,SE,128,4.0,5.0,45,0.00,,---,0.00,VWS V14.00,2013-05-14 00:38:00,
2013-05-13 19:43:00,52.5,31.8,29.89,SSE,162,0.0,5.0,45,0.00,,---,0.00,VWS V14.00,2013-05-14 00:43:00,
2013-05-13 19:48:00,52.4,32.2,29.88,SSE,167,0.0,5.0,46,0.00,,---,0.00,VWS V14.00,2013-05-14 00:48:00,
2013-05-13 19:53:00,52.3,32.2,29.88,ESE,123,0.0,7.0,46,0.00,,---,0.00,VWS V14.00,2013-05-14 00:53:00,
2013-05-13 19:58:00,52.2,32.1,29.87,SSE,155,0.0,7.0,46,0.00,,---,0.00,VWS V14.00,2013-05-14 00:58:00,
2013-05-13 20:03:00,52.2,32.1,29.87,South,178,0.0,7.0,46,0.00,,---,0.00,VWS V14.00,2013-05-14 01:03:00,
2013-05-13 20:08:00,52.1,32.0,29.87,East,89,0.0,4.0,46,0.00,,---,0.00,VWS V14.00,2013-05-14 01:08:00,
2013-05-13 20:13:00,52.1,32.0,29.86,East,83,2.0,7.0,46,0.00,,---,0.00,VWS V14.00,2013-05-14 01:13:00,
2013-05-13 20:18:00,52.0,32.4,29.86,South,173,2.0,7.0,47,0.00,,---,0.00,VWS V14.00,2013-05-14 01:18:00,
2013-05-13 20:23:00,51.9,32.3,29.86,SSE,147,0.0,2.0,47,0.00,,---,0.00,VWS V14.00,2013-05-14 01:23:00,
2013-05-13 20:28:00,51.8,32.2,29.86,SSE,148,0.0,5.0,47,0.00,,---,0.00,VWS V14.00,2013-05-14 01:28:00,
2013-05-13 20:33:00,51.7,32.1,29.85,SSE,160,0.0,5.0,47,0.00,,---,0.00,VWS V14.00,2013-05-14 01:33:00,
2013-05-13 20:38:00,51.7,32.7,29.85,South,186,0.0,7.0,48,0.00,,---,0.00,VWS V14.00,2013-05-14 01:38:00,
2013-05-13 20:43:00,51.8,32.8,29.84,SE,124,4.0,7.0,48,0.00,,---,0.00,VWS V14.00,2013-05-14 01:43:00,
2013-05-13 20:48:00,51.9,32.8,29.84,SE,128,0.0,7.0,48,0.00,,---,0.00,VWS V14.00,2013-05-14 01:48:00,
2013-05-13 20:53:00,52.0,32.9,29.83,SE,138,1.0,10.0,48,0.00,,---,0.00,VWS V14.00,2013-05-14 01:53:00,
2013-05-13 20:58:00,51.9,32.8,29.83,SE,133,7.0,10.0,48,0.00,,---,0.00,VWS V14.00,2013-05-14 01:58:00,
2013-05-13 21:03:00,52.0,32.9,29.83,SSE,161,2.0,10.0,48,0.00,,---,0.00,VWS V14.00,2013-05-14 02:03:00,
2013-05-13 21:08:00,52.0,32.9,29.83,SSE,149,1.0,6.0,48,0.00,,---,0.00,VWS V14.00,2013-05-14 02:08:00,
2013-05-13 21:13:00,52.0,32.9,29.83,SE,138,1.0,8.0,48,0.00,,---,0.00,VWS V14.00,2013-05-14 02:13:00,
2013-05-13 21:18:00,51.9,33.4,29.83,WSW,255,3.0,8.0,49,0.00,,---,0.00,VWS V14.00,2013-05-14 02:18:00,
2013-05-13 21:23:00,51.9,33.4,29.83,ESE,120,0.0,7.0,49,0.00,,---,0.00,VWS V14.00,2013-05-14 02:23:00,
2013-05-13 21:28:00,51.9,32.8,29.83,SE,132,0.0,8.0,48,0.00,,---,0.00,VWS V14.00,2013-05-14 02:28:00,
2013-05-13 21:33:00,51.8,32.8,29.82,SE,137,3.0,8.0,48,0.00,,---,0.00,VWS V14.00,2013-05-14 02:33:00,
2013-05-13 21:38:00,51.9,32.8,29.83,ESE,123,3.0,7.0,48,0.00,,---,0.00,VWS V14.00,2013-05-14 02:38:00,
2013-05-13 21:43:00,51.8,32.8,29.82,SE,136,1.0,7.0,48,0.00,,---,0.00,VWS V14.00,2013-05-14 02:43:00,
2013-05-13 21:48:00,51.8,32.8,29.82,SE,126,0.0,10.0,48,0.00,,---,0.00,VWS V14.00,2013-05-14 02:48:00,
2013-05-13 21:53:00,51.8,32.8,29.82,SSE,155,2.0,9.0,48,0.00,,---,0.00,VWS V14.00,2013-05-14 02:53:00,
2013-05-13 21:58:00,51.6,32.6,29.82,SSE,148,2.0,9.0,48,0.00,,---,0.00,VWS V14.00,2013-05-14 02:58:00,
2013-05-13 22:03:00,51.5,32.0,29.82,SSE,161,3.0,9.0,47,0.00,,---,0.00,VWS V14.00,2013-05-14 03:03:00,
2013-05-13 22:08:00,51.4,32.4,29.82,ESE,113,0.0,5.0,48,0.00,,---,0.00,VWS V14.00,2013-05-14 03:08:00,
2013-05-13 22:13:00,51.4,32.4,29.82,SE,140,0.0,6.0,48,0.00,,---,0.00,VWS V14.00,2013-05-14 03:13:00,
2013-05-13 22:18:00,51.4,32.4,29.82,SSE,160,1.0,7.0,48,0.00,,---,0.00,VWS V14.00,2013-05-14 03:18:00,
2013-05-13 22:23:00,51.4,32.4,29.82,SSE,166,0.0,4.0,48,0.00,,---,0.00,VWS V14.00,2013-05-14 03:23:00,
2013-05-13 22:28:00,51.3,32.3,29.82,SSE,147,6.0,8.0,48,0.00,,---,0.00,VWS V14.00,2013-05-14 03:28:00,
2013-05-13 22:33:00,51.3,32.3,29.81,ESE,105,0.0,8.0,48,0.00,,---,0.00,VWS V14.00,2013-05-14 03:33:00,
2013-05-13 22:38:00,51.3,32.8,29.81,SSE,155,4.0,6.0,49,0.00,,---,0.00,VWS V14.00,2013-05-14 03:38:00,
2013-05-13 22:43:00,51.4,32.4,29.81,SSE,162,4.0,7.0,48,0.00,,---,0.00,VWS V14.00,2013-05-14 03:43:00,
2013-05-13 22:48:00,51.5,32.5,29.80,SE,142,0.0,7.0,48,0.00,,---,0.00,VWS V14.00,2013-05-14 03:48:00,
2013-05-13 22:53:00,51.6,32.6,29.80,SE,140,3.0,7.0,48,0.00,,---,0.00,VWS V14.00,2013-05-14 03:53:00,
2013-05-13 22:58:00,51.7,32.7,29.80,SE,133,0.0,7.0,48,0.00,,---,0.00,VWS V14.00,2013-05-14 03:58:00,
2013-05-13 23:01:00,51.7,32.7,29.79,SE,133,3.0,7.0,48,0.00,,---,0.00,VWS V14.00,2013-05-14 04:01:00,
2013-05-13 23:06:00,51.6,32.6,29.79,South,176,0.0,6.0,48,0.00,,---,0.00,VWS V14.00,2013-05-14 04:06:00,
2013-05-13 23:11:00,51.6,32.0,29.78,ESE,115,1.0,9.0,47,0.00,,---,0.00,VWS V14.00,2013-05-14 04:11:00,
2013-05-13 23:16:00,51.7,32.1,29.78,SE,132,2.0,9.0,47,0.00,,---,0.00,VWS V14.00,2013-05-14 04:16:00,
2013-05-13 23:21:00,51.8,32.2,29.78,SSE,157,0.0,7.0,47,0.00,,---,0.00,VWS V14.00,2013-05-14 04:21:00,
2013-05-13 23:26:00,51.9,32.3,29.78,SW,220,0.0,7.0,47,0.00,,---,0.00,VWS V14.00,2013-05-14 04:26:00,
2013-05-13 23:31:00,51.9,32.3,29.78,SSE,163,0.0,7.0,47,0.00,,---,0.00,VWS V14.00,2013-05-14 04:31:00,
2013-05-13 23:36:00,51.9,32.3,29.77,SSE,157,3.0,15.0,47,0.00,,---,0.00,VWS V14.00,2013-05-14 04:36:00,
2013-05-13 23:41:00,51.9,32.3,29.77,SSE,161,4.0,15.0,47,0.00,,---,0.00,VWS V14.00,2013-05-14 04:41:00,
2013-05-13 23:46:00,51.8,32.2,29.77,SSE,150,2.0,15.0,47,0.00,,---,0.00,VWS V14.00,2013-05-14 04:46:00,
2013-05-13 23:51:00,51.7,32.1,29.77,SSW,201,0.0,4.0,47,0.00,,---,0.00,VWS V14.00,2013-05-14 04:51:00,
2013-05-13 23:56:00,51.6,32.6,29.77,SSE,154,1.0,10.0,48,0.00,,---,0.00,VWS V14.00,2013-05-14 04:56:00,